| time (UTC) | temp F | wind direction | speed MPH | gust MPH | rain 1hr in | rain 24hr in | rain mn in | humidity % | barometer mb |
| 20260831050207 | 62 | 1 | 0.0 | 5.0 | 0.00 | 0.26 | 0.23 | 91 | 1013.7 |
| 20260831040206 | 63 | 237 | 0.0 | 5.0 | 0.00 | 0.26 | 0.23 | 94 | 1013.3 |
| 20260831030206 | 65 | 182 | 0.0 | 0.0 | 0.00 | 0.26 | 0.23 | 95 | 1012.8 |
| 20260831020210 | 65 | 182 | 0.0 | 0.0 | 0.00 | 0.26 | 0.23 | 95 | 1012.4 |
| 20260831010207 | 65 | 182 | 0.0 | 0.0 | 0.00 | 0.26 | 0.23 | 94 | 1012.4 |
| 20260831000220 | 65 | 313 | 0.0 | 0.0 | 0.14 | 0.26 | 0.23 | 93 | 1012.1 |
| 20260830230209 | 66 | 335 | 0.0 | 1.0 | 0.09 | 0.12 | 0.09 | 91 | 1012.4 |
| 20260830210205 | 73 | 125 | 0.0 | 0.0 | 0.00 | 0.00 | 0.00 | 65 | 1010.2 |
| 20260830200206 | 74 | 288 | 0.0 | 0.0 | 0.00 | 0.00 | 0.00 | 55 | 1010.2 |
| 20260830190208 | 77 | 288 | 0.0 | 0.0 | 0.00 | 0.00 | 0.00 | 50 | 1010.5 |
| 20260830180206 | 79 | 284 | 0.0 | 1.0 | 0.00 | 0.00 | 0.00 | 46 | 1010.5 |
| 20260830170206 | 80 | 302 | 0.0 | 4.0 | 0.00 | 0.00 | 0.00 | 42 | 1010.5 |
| 20260830150211 | 81 | 21 | 1.0 | 5.0 | 0.00 | 0.00 | 0.00 | 44 | 1010.8 |
| 20260830140206 | 82 | 176 | 0.0 | 6.0 | 0.00 | 0.00 | 0.00 | 44 | 1011.1 |
| 20260830130207 | 84 | 243 | 1.0 | 11.0 | 0.00 | 0.00 | 0.00 | 44 | 1011.8 |
| 20260830120232 | 85 | 340 | 0.0 | 5.0 | 0.00 | 0.00 | 0.00 | 43 | 1011.9 |
| 20260830110207 | 81 | 300 | 1.0 | 9.0 | 0.00 | 0.00 | 0.00 | 48 | 1012.3 |
| 20260830100207 | 75 | 283 | 0.0 | 1.0 | 0.00 | 0.00 | 0.00 | 59 | 1012.8 |
| 20260830080228 | 72 | 335 | 0.0 | 1.0 | 0.00 | 0.00 | 0.00 | 63 | 1013.0 |
| 20260830070208 | 67 | 121 | 0.0 | 1.0 | 0.00 | 0.00 | 0.00 | 74 | 1012.7 |